Printer-friendly version
Follow the MPC on Twitter Follow the MPC on Facebook The MPC blog
Minor Planet Center

MPEC 2010-G109: 2010 GW64

The following Minor Planet Electronic Circular may be linked-to from your own Web pages, but must not otherwise be redistributed electronically.

A form allowing access to any MPEC is at the bottom of this page.


Read MPEC 2010-G108 Read MPEC 2010-G110


M.P.E.C. 2010-G109                               Issued 2010 Apr. 14, 14:02 UT

     The Minor Planet Electronic Circulars contain information on unusual
         minor planets and routine data on comets.  They are published
   on behalf of Commission 20 of the International Astronomical Union by the
          Minor Planet Center, Smithsonian Astrophysical Observatory,
                          Cambridge, MA 02138, U.S.A.

             Prepared using the Tamkin Foundation Computer Network

                              MPC@CFA.HARVARD.EDU
       URL http://www.minorplanetcenter.org/iau/mpc.html  ISSN 1523-6714

                                   2010 GW64

Observations:
     K10G64W* S2010 04 06.77998 08 06 45.94 +51 22 57.5          20   R EG109C51
     K10G64W  s2010 04 06.77998 1 -  160.5071 + 4201.4806 + 5471.4278   EG109C51
     K10G64W  S2010 04 06.91229 08 06 38.44 +51 20 26.2                 EG109C51
     K10G64W  s2010 04 06.91229 1 -  172.1944 + 4207.6655 + 5466.4816   EG109C51
     K10G64W  S2010 04 07.04459 08 06 31.26 +51 17 54.8                 EG109C51
     K10G64W  s2010 04 07.04459 1 -  184.6247 + 4214.3638 + 5460.6933   EG109C51
     K10G64W  S2010 04 07.17690 08 06 24.09 +51 15 24.0                 EG109C51
     K10G64W  s2010 04 07.17690 1 -  196.2639 + 4221.1162 + 5454.9440   EG109C51
     K10G64W  S2010 04 07.24311 08 06 20.51 +51 14 06.4                 EG109C51
     K10G64W  s2010 04 07.24311 1 -  191.4757 + 4192.3554 + 5477.2327   EG109C51
     K10G64W  S2010 04 07.30920 08 06 16.72 +51 12 51.5                 EG109C51
     K10G64W  s2010 04 07.30920 1 -  207.7557 + 4227.2289 + 5449.9112   EG109C51
     K10G64W  S2010 04 07.37542 08 06 13.17 +51 11 35.1                 EG109C51
     K10G64W  s2010 04 07.37542 1 -  203.1446 + 4198.3948 + 5472.3403   EG109C51
     K10G64W  S2010 04 07.44150 08 06 09.63 +51 10 20.2                 EG109C51
     K10G64W  s2010 04 07.44150 1 -  219.9218 + 4233.5842 + 5444.7060   EG109C51
     K10G64W  S2010 04 07.50772 08 06 06.06 +51 09 04.5                 EG109C51
     K10G64W  s2010 04 07.50772 1 -  214.9200 + 4203.9591 + 5467.8629   EG109C51
     K10G64W  S2010 04 07.64002 08 05 59.05 +51 06 34.3                 EG109C51
     K10G64W  s2010 04 07.64002 1 -  226.7194 + 4210.7686 + 5461.9223   EG109C51
     K10G64W  S2010 04 07.77233 08 05 52.01 +51 04 01.9                 EG109C51
     K10G64W  s2010 04 07.77233 1 -  238.2965 + 4216.4331 + 5456.9738   EG109C51
     K10G64W  C2010 04 14.07362 08 01 13.49 +49 05 28.7          20.9 V EG109H21
     K10G64W  C2010 04 14.07874 08 01 13.28 +49 05 23.2          20.7 V EG109H21
     K10G64W  C2010 04 14.08641 08 01 13.00 +49 05 14.2          21.1 V EG109H21
     K10G64W  C2010 04 14.09138 08 01 12.83 +49 05 09.3          21.1 V EG109H21
     K10G64W  C2010 04 14.12199 08 01 11.71 +49 04 35.5          21.1 R EG109926
     K10G64W  C2010 04 14.12772 08 01 11.49 +49 04 28.5          21.9 R EG109926
     K10G64W  C2010 04 14.13345 08 01 11.40 +49 04 22.0          20.6 R EG109926
     K10G64W HC2010 04 14.13541 08 01 11.18 +49 04 20.0          21.2 V EG109691
     K10G64W HC2010 04 14.13897 08 01 11.02 +49 04 15.1          21.5 V EG109691
     K10G64W HC2010 04 14.14264 08 01 10.96 +49 04 12.3          21.2 V EG109691
     K10G64W  C2010 04 14.17997 08 01 09.50 +49 03 30.1          20.8 V EG109H11
     K10G64W  C2010 04 14.18204 08 01 09.41 +49 03 27.2          21.3 V EG109H11
     K10G64W  C2010 04 14.18214 08 01 09.49 +49 03 27.5          20.6 R EG109H01
     K10G64W  C2010 04 14.18414 08 01 09.33 +49 03 25.2          21.1 V EG109H11
     K10G64W  C2010 04 14.19227 08 01 09.12 +49 03 16.2          20.5 R EG109H01
     K10G64W  C2010 04 14.20081 08 01 08.82 +49 03 06.6          21.1 R EG109H01
     K10G64W  C2010 04 14.20827 08 01 08.54 +49 02 58.4          20.4 R EG109H01
     K10G64W KC2010 04 14.21396 08 01 08.13 +49 02 50.9          21.0 R EG109H36
     K10G64W IC2010 04 14.23560 08 01 07.31 +49 02 28.6          21.4 R EG109H36

Observer details:
691 Steward Observatory, Kitt Peak.  Observer J. V. Scotti.  0.9-m f/3
    reflector + CCD.
926 Tenagra II Observatory.  Observers P. R. Holvorcem, M. Schwartz.  Measurer
    P. R. Holvorcem.  0.81-m f/7 Ritchey-Chretien + CCD.
H01 Magdalena Ridge Observatory, Socorro.  Observer W. H. Ryan.  2.4-m f/8.9
    reflector + CCD.
H11 LightBuckets Observatory, Rodeo.  Observer T. Vorobjov.  0.61-m f/8
    Ritchey-Chretien + CCD.
H21 Astronomical Research Observatory, Westfield.  Observer R. Holmes.
    Measurer H. Devore.  0.81-m f/4.0 astrograph + CCD.
H36 Sandlot Observatory, Scranton.  Observer G. Hug.  0.56-m reflector + CCD.
C51 WISE.  Measurers A. Mainzer, E. Wright, J. Bauer, T. Grav, J. Dailey, J.
    Masiero, R. Cutri, R. McMillan, R. Walker.
    (http://wise.ssl.berkeley.edu/mission_sci.html)

Orbital elements:
2010 GW64
Epoch 2010 Mar. 25.0 TT = JDT 2455280.5                 MPC
M 359.98005              (2000.0)            P               Q
n   0.00105585     Peri.  151.62582     -0.56744604     -0.04912832
a  95.5139444      Node   301.50828     +0.44547265     +0.82120184
e   0.9610967      Incl.  105.40252     +0.69250206     -0.56851907
P 933              H   14.7           G   0.15
From 30 observations 2010 Apr. 6-14.

Ephemeris:
2010 GW64                a,e,i = 95.51, 0.96, 105                q = 3.7158
Date    TT    R. A. (2000) Decl.     Delta      r     Elong.  Phase     V
2010 04 14    08 01.27   +49 06.9    3.606    3.716    88.4    15.7    21.2
2010 04 24    07 57.05   +46 06.3    3.767    3.717    79.5    15.4    21.3
2010 05 04    07 55.80   +43 17.3    3.931    3.720    70.7    14.8    21.4
2010 05 14    07 56.72   +40 40.1    4.091    3.726    62.0    13.9    21.4
2010 05 24    07 59.24   +38 14.0    4.245    3.733    53.6    12.6    21.4
2010 06 03    08 02.90   +35 57.9    4.386    3.743    45.3    11.1    21.5

Timothy B. Spahr             (C) Copyright 2010 MPC           M.P.E.C. 2010-G109

Read MPEC 2010-G108 Read MPEC 2010-G110


MPEC number:

Enter an MPEC number in one of the following forms:

  • 1997-B01 (the full form)
  • J97B01 (the packed version of the full form)
  • B01 (the abbreviated form)

Valid HTML 4.01!